Myrtle Beach, SC

9:27 AM EST on December 07, 2016 (GMT -0500)
Myrtle Beach International

Weather History for KMYR - April, 2013

Change the Weather History Date:

Friday, April 12, 2013

  Actual Average Record
Temperature  
Mean Temperature 72 °F -  
Max Temperature 77 °F 69 °F 85 °F (1993)
Min Temperature 66 °F 51 °F 34 °F (1989)
Cooling Degree Days 6    
Growing Degree Days 22 (Base 50)    
Moisture  
Dew Point 66 °F    
Average Humidity 89    
Maximum Humidity 94    
Minimum Humidity 78    
Precipitation  
Precipitation 0.31 in - - ()
Sea Level Pressure  
Sea Level Pressure 29.82 in    
Wind  
Wind Speed 12 mph (SSW)    
Max Wind Speed 21 mph    
Max Gust Speed 26 mph    
Visibility 9 miles    
Events Rain , Thunderstorm    
Averages and records for this station are not official NWS values.
T = Trace of Precipitation, MM = Missing Value Source: NWS Daily Summary

Daily Weather History Graph

Daily Weather History Graph

Search for Another Location

Airport or City:

Trip Planner

Search our weather history database for the weather conditions in past years. The results will help you decide how hot, cold, wet, or windy it might be!

Date:

Astronomy

Apr. 12, 2013 Rise Set
Actual Time 6:48 AM EDT 7:44 PM EDT
Civil Twilight 6:23 AM EDT 8:10 PM EDT
Nautical Twilight 5:53 AM EDT 8:40 PM EDT
Astronomical Twilight 5:21 AM EDT 9:11 PM EDT
Moon 8:03 AM EDT (4/12) 10:06 PM EDT (4/12)
Length of Visible Light 13h 47m
Length of Day
12h 56m
Waxing Crescent, 5% of the Moon is Illuminated
Apr 12
Waxing Crescent
Apr 18
First Quarter
Apr 25
Full
May 2
Last Quarter
May 9
New

Hourly Weather History & Observations

Time (EDT) Temp. Dew Point Humidity Pressure Visibility Wind Dir Wind Speed Gust Speed Precip Events Conditions
12:15 AM 68.0 °F 64.4 °F 88% 29.89 in 10.0 mi South 11.5 mph - N/A   Mostly Cloudy
12:35 AM 68.0 °F 64.4 °F 88% 29.90 in 10.0 mi South 12.7 mph - N/A   Partly Cloudy
12:55 AM 68.0 °F 64.4 °F 88% 29.89 in 10.0 mi South 11.5 mph - N/A   Clear
1:15 AM 66.2 °F 64.4 °F 94% 29.89 in 10.0 mi South 10.4 mph - N/A   Clear
1:35 AM 66.2 °F 64.4 °F 94% 29.88 in 9.0 mi South 10.4 mph - N/A   Clear
1:55 AM 66.2 °F 64.4 °F 94% 29.88 in 9.0 mi South 10.4 mph - N/A   Scattered Clouds
2:15 AM 66.2 °F 64.4 °F 94% 29.87 in 10.0 mi South 11.5 mph - N/A   Mostly Cloudy
2:35 AM 66.2 °F 64.4 °F 94% 29.87 in 10.0 mi South 10.4 mph 16.1 mph N/A   Partly Cloudy
2:55 AM 66.2 °F 64.4 °F 94% 29.86 in 10.0 mi South 9.2 mph - N/A   Clear
3:15 AM 66.2 °F 64.4 °F 94% 29.85 in 10.0 mi South 10.4 mph - N/A   Clear
3:35 AM 66.2 °F 64.4 °F 94% 29.85 in 10.0 mi South 10.4 mph - N/A   Mostly Cloudy
3:55 AM 66.2 °F 64.4 °F 94% 29.85 in 10.0 mi South 12.7 mph 17.3 mph N/A   Overcast
4:15 AM 68.0 °F 64.4 °F 88% 29.85 in 10.0 mi South 12.7 mph 19.6 mph N/A   Overcast
4:35 AM 66.2 °F 62.6 °F 88% 29.83 in 8.0 mi South 12.7 mph 19.6 mph 0.01 in Thunderstorm Thunderstorm
4:55 AM 66.2 °F 64.4 °F 94% 29.81 in 10.0 mi SSE 11.5 mph 17.3 mph 0.04 in Thunderstorm Overcast
5:15 AM 66.2 °F 64.4 °F 94% 29.83 in 5.0 mi SSE 15.0 mph 18.4 mph 0.15 in Thunderstorm Thunderstorm
5:35 AM 66.2 °F 64.4 °F 94% 29.82 in 6.0 mi South 13.8 mph 19.6 mph 0.27 in Thunderstorm Overcast
5:50 AM 66.2 °F 64.4 °F 94% 29.81 in 4.0 mi South 17.3 mph - N/A Rain , Thunderstorm Thunderstorms and Rain
6:25 AM 66.2 °F 64.4 °F 94% 29.81 in 7.0 mi SSW 15.0 mph - N/A Rain Light Rain
6:45 AM 68.0 °F 66.2 °F 94% 29.80 in 5.0 mi SSW 11.5 mph 23.0 mph N/A Rain , Thunderstorm Thunderstorms and Rain
7:45 AM 69.8 °F 66.2 °F 88% 29.81 in 10.0 mi SSW 11.5 mph - N/A Rain Light Rain
8:45 AM 71.6 °F 68.0 °F 88% 29.81 in 10.0 mi SW 13.8 mph - N/A   Overcast
10:50 AM 75.2 °F 69.8 °F 83% 29.81 in 10.0 mi SW 17.3 mph - N/A   Mostly Cloudy
11:50 AM 77.0 °F 69.8 °F 78% 29.81 in 10.0 mi SW 17.3 mph 26.5 mph N/A   Mostly Cloudy
12:45 PM 73.4 °F 69.8 °F 88% 29.80 in 10.0 mi SSW 17.3 mph - N/A   Scattered Clouds
1:50 PM 77.0 °F 69.8 °F 78% 29.76 in 10.0 mi SSW 17.3 mph 23.0 mph N/A   Mostly Cloudy
2:50 PM 75.2 °F 68.0 °F 78% 29.74 in 10.0 mi SSW 17.3 mph 23.0 mph N/A   Mostly Cloudy
3:50 PM 71.6 °F 66.2 °F 83% 29.73 in 6.0 mi SSW 20.7 mph - N/A   Haze
6:50 PM 71.6 °F 68.0 °F 88% 29.75 in 7.0 mi SSW 13.8 mph - N/A   Mostly Cloudy
7:50 PM 69.8 °F 66.2 °F 88% 29.76 in 8.0 mi SSW 16.1 mph - N/A   Partly Cloudy
8:50 PM 69.8 °F 68.0 °F 94% 29.77 in 8.0 mi SSW 11.5 mph - N/A   Clear
9:50 PM 69.8 °F 64.4 °F 83% 29.78 in 10.0 mi SW 11.5 mph - N/A   Clear
11:15 PM 68.0 °F 64.4 °F 88% 29.80 in 8.0 mi South 5.8 mph - N/A   Clear
11:35 PM 69.8 °F 66.2 °F 88% 29.80 in 10.0 mi SW 6.9 mph - N/A   Clear
11:55 PM 69.8 °F 66.2 °F 88% 29.81 in 10.0 mi SW 6.9 mph - N/A   Clear